Date String (YYYY-MM-DD hh:mm:ss) UTC,Instrument flags,Ambient pressure (hPa),Sample flow (lpm),Bypass flow (lpm),Sample temperature (°C),Ambient temperature (°C),ASC tube jacket temperature (°C),LED temperature (°C),Box temperature (°C),Sample RH (%),Span deviation,Mass concentration (μg/m³),Mass concentration (μg/m³),Mass concentration (μg/m³)
DateTimeUTC,F1_M11,P_M11,Q1_M11,Q2_M11,T1_M11,T2_M11,T3_M11,T4_M11,T5_M11,U1_M11,ZSPAN_M11,X0_M11,X2_M11,X1_M11
2022-03-16 13:00:00,,0822.5,5.00,0.00,25.4,24.6,00.0,34.4,27.2,09.5,0000.0,0009.96,0002.86,0001.53
2022-03-16 13:01:00,,0822.5,5.00,0.00,25.4,24.6,00.0,34.3,27.2,09.5,0000.0,0011.28,0002.96,0001.55
2022-03-16 13:02:00,,0822.5,5.00,0.00,25.4,24.6,00.0,34.4,27.2,09.3,0000.0,0010.96,0002.98,0001.57
2022-03-16 13:03:00,,0822.5,5.00,0.00,25.4,24.6,00.0,34.4,27.2,09.2,0000.0,0009.87,0003.01,0001.59
2022-03-16 13:04:00,,0822.6,4.99,0.00,25.4,24.6,00.0,34.4,27.3,09.2,0000.0,0009.82,0002.98,0001.58
2022-03-16 13:05:00,,0822.6,5.00,0.00,25.4,24.6,00.0,34.4,27.3,09.3,0000.0,0009.69,0002.92,0001.59
2022-03-16 13:06:00,,0822.7,4.99,0.00,25.4,24.6,00.0,34.4,27.3,09.5,0000.0,0010.06,0002.86,0001.59
2022-03-16 13:07:00,,0822.6,5.00,0.00,25.4,24.6,00.0,34.4,27.3,09.4,0000.0,0009.87,0002.82,0001.58
2022-03-16 13:08:00,,0822.6,5.01,0.00,25.4,24.6,00.0,34.3,27.2,09.3,0000.0,0010.07,0002.72,0001.56
2022-03-16 13:09:00,,0822.7,5.00,0.00,25.4,24.6,00.0,34.4,27.2,09.4,0000.0,0010.20,0002.68,0001.55
2022-03-16 13:10:00,,0822.7,5.01,0.00,25.4,24.6,00.0,34.3,27.2,09.0,0000.0,0009.67,0002.62,0001.53
2022-03-16 13:11:00,,0822.7,5.01,0.00,25.4,24.6,00.0,34.3,27.2,09.0,0000.0,0009.45,0002.54,0001.54
2022-03-16 13:12:00,,0822.7,5.01,0.00,25.4,24.6,00.0,34.3,27.2,09.0,0000.0,0007.97,0002.39,0001.54
2022-03-16 13:13:00,,0822.6,5.00,0.00,25.4,24.6,00.0,34.4,27.2,08.9,0000.0,0007.70,0002.31,0001.55
2022-03-16 13:14:00,,0822.7,5.00,0.00,25.4,24.6,00.0,34.4,27.2,09.0,0000.0,0007.58,0002.28,0001.54
2022-03-16 13:15:00,,0822.7,4.99,0.00,25.4,24.6,00.0,34.3,27.2,09.0,0000.0,0007.68,0002.31,0001.56
2022-03-16 13:16:00,,0822.7,5.00,0.00,25.4,24.6,00.0,34.3,27.2,09.0,0000.0,0008.23,0002.32,0001.57
2022-03-16 13:17:00,,0822.7,5.01,0.00,25.4,24.6,00.0,34.3,27.2,09.0,0000.0,0007.80,0002.35,0001.59
2022-03-16 13:18:00,,0822.7,5.00,0.00,25.4,24.6,00.0,34.3,27.2,08.9,0000.0,0008.05,0002.48,0001.68
2022-03-16 13:19:00,,0822.7,5.00,0.00,25.4,24.6,00.0,34.3,27.2,09.1,0000.0,0007.49,0002.57,0001.74
2022-03-16 13:20:00,,0822.7,5.00,0.00,25.4,24.6,00.0,34.3,27.2,09.1,0000.0,0007.07,0002.50,0001.76
2022-03-16 13:21:00,,0822.7,4.98,0.00,25.4,24.6,00.0,34.3,27.2,09.2,0000.0,0006.65,0002.54,0001.77
2022-03-16 13:22:00,,0822.9,5.00,0.00,25.4,24.6,00.0,34.3,27.2,09.2,0000.0,0006.40,0002.56,0001.76
2022-03-16 13:23:00,,0822.8,5.00,0.00,25.4,24.6,00.0,34.3,27.2,09.1,0000.0,0006.64,0002.62,0001.79
2022-03-16 13:24:00,,0822.8,5.01,0.00,25.4,24.6,00.0,34.3,27.2,09.2,0000.0,0006.72,0002.66,0001.80
2022-03-16 13:25:00,,0822.8,5.00,0.00,25.4,24.6,00.0,34.3,27.2,09.1,0000.0,0006.66,0002.65,0001.84
2022-03-16 13:26:00,,0822.7,5.00,0.00,25.4,24.6,00.0,34.3,27.2,09.1,0000.0,0006.70,0002.70,0001.87
2022-03-16 13:27:00,,0822.9,5.01,0.00,25.4,24.6,00.0,34.3,27.2,08.9,0000.0,0005.75,0002.97,0002.13
2022-03-16 13:28:00,,0822.7,4.98,0.00,25.4,24.6,00.0,34.3,27.2,09.0,0000.0,0006.13,0003.17,0002.28
2022-03-16 13:29:00,,0822.7,5.00,0.00,25.4,24.6,00.0,34.3,27.3,09.1,0000.0,0005.95,0003.25,0002.40
2022-03-16 13:30:00,,0822.8,5.01,0.00,25.4,24.6,00.0,34.3,27.2,09.1,0000.0,0007.29,0003.46,0002.79
2022-03-16 13:31:00,,0822.9,5.00,0.00,25.4,24.6,00.0,34.3,27.2,09.0,0000.0,0008.34,0003.74,0003.15
2022-03-16 13:32:00,,0822.9,4.98,0.00,25.4,24.6,00.0,34.3,27.2,09.1,-000.1,0009.35,0004.39,0003.70
2022-03-16 13:33:00,,0822.9,4.99,0.00,25.4,24.6,00.0,34.3,27.2,09.1,-000.4,0010.37,0005.18,0004.45
2022-03-16 13:34:00,,0823.0,5.01,0.00,25.4,24.6,00.0,34.3,27.2,09.1,-001.0,0011.29,0005.87,0005.07
2022-03-16 13:35:00,,0822.9,5.00,0.00,25.4,24.6,00.0,34.3,27.2,09.1,-000.5,0012.87,0006.55,0005.70
2022-03-16 13:36:00,,0823.0,4.99,0.00,25.4,24.6,00.0,34.3,27.3,09.1,-000.7,0013.75,0007.14,0006.25
2022-03-16 13:37:00,,0823.1,5.01,0.00,25.4,24.6,00.0,34.3,27.2,09.1,-001.2,0014.36,0007.56,0006.65
2022-03-16 13:38:00,,0823.1,5.00,0.00,25.4,24.6,00.0,34.3,27.2,09.1,-002.1,0015.32,0007.92,0007.00
2022-03-16 13:39:00,,0823.1,5.00,0.00,25.4,24.6,00.0,34.3,27.2,09.2,-001.9,0015.83,0008.33,0007.40
2022-03-16 13:40:00,,0823.2,4.99,0.00,25.4,24.6,00.0,34.3,27.2,09.3,-001.4,0015.96,0008.47,0007.57
2022-03-16 13:41:00,,0823.1,5.00,0.00,25.4,24.6,00.0,34.3,27.2,09.4,-001.6,0015.37,0008.45,0007.55
2022-03-16 13:42:00,,0823.1,5.00,0.00,25.4,24.6,00.0,34.4,27.2,09.3,-001.6,0014.75,0008.48,0007.60
2022-03-16 13:43:00,,0823.1,5.00,0.00,25.4,24.6,00.0,34.4,27.2,09.2,-001.2,0014.23,0008.15,0007.33
2022-03-16 13:44:00,,0823.1,5.00,0.00,25.4,24.6,00.0,34.4,27.2,09.1,-002.0,0013.69,0007.70,0006.92
2022-03-16 13:45:00,,0823.1,5.00,0.00,25.4,24.6,00.0,34.4,27.2,09.0,-001.7,0013.80,0007.25,0006.51
2022-03-16 13:46:00,,0823.2,5.00,0.00,25.4,24.6,00.0,34.4,27.2,09.0,-001.8,0012.75,0006.89,0006.19
2022-03-16 13:47:00,,0823.2,5.00,0.00,25.4,24.6,00.0,34.4,27.2,09.0,-001.5,0012.13,0006.60,0005.92
2022-03-16 13:48:00,,0823.2,5.00,0.00,25.4,24.6,00.0,34.4,27.3,09.0,-000.4,0011.94,0006.47,0005.79
2022-03-16 13:49:00,,0823.2,5.01,0.00,25.4,24.6,00.0,34.4,27.3,09.0,0000.2,0011.15,0006.33,0005.65
2022-03-16 13:50:00,,0823.2,5.00,0.00,25.4,24.6,00.0,34.4,27.3,09.0,0000.3,0010.88,0006.15,0005.49
2022-03-16 13:51:00,,0823.2,5.00,0.00,25.4,24.6,00.0,34.4,27.3,09.0,0000.6,0010.94,0006.24,0005.55
2022-03-16 13:52:00,,0823.1,5.00,0.00,25.4,24.6,00.0,34.4,27.3,09.0,0000.2,0011.14,0006.41,0005.66
2022-03-16 13:53:00,,0823.2,5.00,0.00,25.4,24.7,00.0,34.4,27.3,09.0,-000.3,0011.53,0006.49,0005.74
2022-03-16 13:54:00,,0823.2,5.00,0.00,25.5,24.7,00.0,34.4,27.3,09.0,-001.0,0012.28,0006.52,0005.76
2022-03-16 13:55:00,,0823.3,4.98,0.00,25.5,24.7,00.0,34.4,27.3,09.1,-000.5,0012.75,0006.57,0005.80
2022-03-16 13:56:00,,0823.2,5.00,0.00,25.5,24.7,00.0,34.4,27.2,09.1,0001.1,0012.20,0006.64,0005.85
2022-03-16 13:57:00,,0823.2,5.00,0.00,25.5,24.7,00.0,34.4,27.2,09.1,0000.1,0012.11,0006.58,0005.81
2022-03-16 13:58:00,,0823.2,5.00,0.00,25.5,24.7,00.0,34.4,27.3,09.1,0000.7,0011.97,0006.47,0005.72
2022-03-16 13:59:00,,0823.2,5.01,0.00,25.5,24.7,00.0,34.4,27.3,09.1,0000.9,0012.02,0006.40,0005.65
